Torna al catalogo

CZ-6A DEB

AttivoPO
NORAD 60859·DEBRIS·🇨🇳 China

Lanciato Aug 6, 2024 da Taiyuan Satellite Launch Center

Loading…

Prossimi Passaggi (prossime 24 ore)

TLE

AggiornatoSource: Space-Track

Epoca: Sep 14, 2026, 07:27 UTC

1 60859U 24140JN  26257.31076984  .00002142  00000-0  63622-3 0  9990
2 60859  88.5686 221.4077 0066830  51.8453 308.8745 14.41619560109331

Traccia CZ-6A DEB in tempo reale con AllMySat

Download on the App Store